TimeEET,TemperatureF,Dew PointF,Humidity,Sea Level PressureIn,VisibilityMPH,Wind Direction,Wind SpeedMPH,Gust SpeedMPH,PrecipitationIn,Events,Conditions,WindDirDegrees,DateUTC
12:50 AM,48.2,37.4,66,29.95,6.2,NW,4.6,-,N/A,,Scattered Clouds,320,2012-10-30 22:50:00
1:50 AM,48.2,35.6,62,29.95,6.2,Calm,Calm,-,N/A,,Scattered Clouds,0,2012-10-30 23:50:00
2:50 AM,50.0,35.6,58,29.92,6.2,Calm,Calm,-,N/A,,Scattered Clouds,0,2012-10-31 00:50:00
3:50 AM,50.0,35.6,58,29.92,6.2,West,5.8,-,N/A,,Mostly Cloudy,260,2012-10-31 01:50:00
4:50 AM,50.0,35.6,58,29.95,6.2,West,4.6,-,N/A,,Mostly Cloudy,280,2012-10-31 02:50:00
5:20 AM,48.2,35.6,62,29.95,6.2,NW,4.6,-,N/A,,Mostly Cloudy,310,2012-10-31 03:20:00
5:50 AM,50.0,37.4,62,29.95,6.2,WNW,4.6,-,N/A,,Mostly Cloudy,290,2012-10-31 03:50:00
6:20 AM,48.2,37.4,66,29.95,6.2,WNW,4.6,-,N/A,,Mostly Cloudy,290,2012-10-31 04:20:00
6:50 AM,50.0,37.4,62,29.98,6.2,West,4.6,-,N/A,,Mostly Cloudy,280,2012-10-31 04:50:00
7:20 AM,50.0,37.4,62,29.98,6.2,WNW,5.8,-,N/A,,Mostly Cloudy,290,2012-10-31 05:20:00
7:50 AM,50.0,37.4,62,29.98,6.2,WNW,4.6,-,N/A,,Mostly Cloudy,300,2012-10-31 05:50:00
8:20 AM,51.8,37.4,58,29.98,6.2,NW,4.6,-,N/A,,Mostly Cloudy,310,2012-10-31 06:20:00
8:50 AM,55.4,41.0,58,30.01,6.2,WNW,5.8,-,N/A,,Mostly Cloudy,290,2012-10-31 06:50:00
9:20 AM,59.0,41.0,51,30.01,6.2,WNW,6.9,-,N/A,,Mostly Cloudy,300,2012-10-31 07:20:00
9:50 AM,60.8,41.0,48,30.01,6.2,WNW,4.6,-,N/A,,Mostly Cloudy,300,2012-10-31 07:50:00
10:20 AM,60.8,41.0,48,30.01,6.2,NW,4.6,-,N/A,,Mostly Cloudy,310,2012-10-31 08:20:00
10:50 AM,64.4,37.4,37,30.01,6.2,WNW,5.8,-,N/A,,Scattered Clouds,300,2012-10-31 08:50:00
11:20 AM,66.2,37.4,35,29.98,6.2,NNW,6.9,-,N/A,,Scattered Clouds,330,2012-10-31 09:20:00
11:50 AM,66.2,39.2,37,29.98,6.2,NW,6.9,-,N/A,,Partly Cloudy,320,2012-10-31 09:50:00
12:20 PM,66.2,39.2,37,29.98,6.2,NNW,5.8,-,N/A,,Partly Cloudy,330,2012-10-31 10:20:00
12:50 PM,68.0,39.2,35,29.98,6.2,Calm,Calm,-,N/A,,Partly Cloudy,0,2012-10-31 10:50:00
1:20 PM,68.0,39.2,35,29.98,6.2,East,5.8,-,N/A,,Partly Cloudy,80,2012-10-31 11:20:00
1:50 PM,68.0,41.0,37,29.95,6.2,East,5.8,-,N/A,,Mostly Cloudy,80,2012-10-31 11:50:00
2:20 PM,68.0,41.0,37,29.95,6.2,East,8.1,-,N/A,,Mostly Cloudy,90,2012-10-31 12:20:00
2:50 PM,68.0,41.0,37,29.95,6.2,East,6.9,-,N/A,,Mostly Cloudy,90,2012-10-31 12:50:00
3:20 PM,66.2,41.0,40,29.95,6.2,East,6.9,-,N/A,,Mostly Cloudy,90,2012-10-31 13:20:00
3:50 PM,66.2,41.0,40,29.95,6.2,East,5.8,-,N/A,,Mostly Cloudy,90,2012-10-31 13:50:00
4:20 PM,66.2,41.0,40,29.95,6.2,East,5.8,-,N/A,,Mostly Cloudy,100,2012-10-31 14:20:00
4:50 PM,64.4,44.6,49,29.95,6.2,East,5.8,-,N/A,,Mostly Cloudy,80,2012-10-31 14:50:00
5:20 PM,62.6,44.6,52,29.95,6.2,East,5.8,-,N/A,,Mostly Cloudy,90,2012-10-31 15:20:00
5:50 PM,62.6,46.4,55,29.95,6.2,ESE,4.6,-,N/A,,Mostly Cloudy,110,2012-10-31 15:50:00
6:20 PM,60.8,46.4,59,29.95,6.2,Calm,Calm,-,N/A,,Mostly Cloudy,0,2012-10-31 16:20:00
6:50 PM,59.0,46.4,63,29.95,6.2,SSW,4.6,-,N/A,,Mostly Cloudy,200,2012-10-31 16:50:00
7:20 PM,59.0,46.4,63,29.95,6.2,Calm,Calm,-,N/A,,Mostly Cloudy,0,2012-10-31 17:20:00
7:50 PM,57.2,46.4,67,29.98,6.2,West,5.8,-,N/A,,Mostly Cloudy,260,2012-10-31 17:50:00
8:50 PM,57.2,46.4,67,29.98,6.2,West,4.6,-,N/A,,Mostly Cloudy,280,2012-10-31 18:50:00
9:50 PM,55.4,46.4,72,29.98,6.2,Calm,Calm,-,N/A,,Mostly Cloudy,0,2012-10-31 19:50:00
10:50 PM,55.4,48.2,77,29.95,6.2,Calm,Calm,-,N/A,,Mostly Cloudy,0,2012-10-31 20:50:00
11:50 PM,55.4,48.2,77,29.95,6.2,Calm,Calm,-,N/A,,Mostly Cloudy,0,2012-10-31 21:50:00